Lapse_Rate
7.8 8.0 8.4 8.6 8.8 9.0 8.9 8.8 8.3 8.3 8.0 8.0 7.9 7.8 7.5 7.3 7.2 7.1 7.3 7.0 7.0 6.8 6.8 6.8 6.8 7.0 7.3 7.4 7.3 7.1 6.9 6.6 5.9 6.2 6.0 6.1 6.1 5.6 5.6 5.5 5.4 5.1 4.8
7.5 7.6 7.7 7.9 8.4 8.6 8.6 8.4 8.1 8.0 7.9 7.9 8.1 7.8 7.6 7.4 7.5 7.2 7.1 6.8 6.9 6.8 6.8 6.3 6.9 7.0 7.2 7.0 6.9 7.2 6.9 6.5 6.0 6.1 6.1 5.9 6.1 5.6 5.4 5.4 5.4 5.3 5.3
7.0 7.1 7.2 7.7 7.7 7.9 7.9 7.8 7.9 8.0 8.0 8.2 7.8 7.6 7.3 7.1 6.6 7.0 6.6 6.5 6.7 6.9 6.7 6.8 6.7 6.5 7.0 7.1 7.2 6.6 6.3 6.1 6.2 6.2 6.1 5.9 5.5 5.6 5.3 5.3 5.3 5.2 5.1
6.7 6.6 6.6 6.7 7.4 7.6 7.7 7.8 7.9 7.9 7.5 7.3 7.3 7.4 7.6 7.1 6.9 6.9 6.8 6.8 7.2 6.7 6.6 6.6 6.7 6.8 6.9 7.1 6.8 6.8 6.6 6.4 6.4 6.2 6.1 5.8 5.9 5.7 5.6 5.3 5.2 5.1 5.3
6.3 6.5 6.4 6.3 6.7 7.2 7.4 7.3 7.3 7.3 7.1 7.1 7.2 7.5 7.3 7.3 7.3 7.0 6.7 6.3 6.6 6.2 6.5 6.6 6.8 6.8 7.0 7.0 6.7 6.7 6.3 6.0 6.0 5.9 6.0 5.8 5.5 5.6 5.8 5.5 5.2 5.2 5.2
6.0 5.6 6.0 6.2 6.1 6.8 6.9 6.7 6.7 6.7 6.9 7.0 6.9 6.9 6.7 6.9 6.4 6.1 5.9 6.0 5.9 6.4 6.4 6.9 6.9 7.2 7.3 6.8 6.7 6.6 6.6 6.1 6.0 5.6 5.2 5.4 5.3 5.3 5.7 5.5 5.5 5.4 5.3
6.0 5.7 5.5 5.8 5.6 6.4 6.6 5.9 6.1 6.4 6.3 6.3 6.5 6.6 6.5 6.5 6.4 5.7 5.7 5.5 5.8 6.3 6.5 6.7 7.0 7.1 7.0 7.0 6.8 6.5 6.7 6.6 5.9 5.7 5.3 5.2 5.1 5.2 5.7 5.6 5.3 5.4 5.3
5.9 5.9 5.9 5.5 5.5 5.5 6.2 5.3 6.1 5.5 6.3 6.2 6.1 5.9 5.9 5.4 5.9 5.4 5.6 5.9 6.2 6.4 6.6 6.7 6.9 6.9 6.7 6.4 6.1 6.2 6.6 6.4 5.8 5.5 5.4 5.5 5.5 5.3 5.4 5.6 5.5 5.4 5.1
5.7 5.5 5.4 5.5 5.8 5.3 5.5 5.0 5.3 5.3 5.4 5.8 5.7 5.5 5.7 5.6 5.8 5.9 6.3 5.8 6.0 6.0 5.9 6.1 6.8 6.6 6.2 5.7 5.6 6.0 6.6 6.5 6.1 5.2 5.3 5.3 5.3 5.4 5.4 5.4 5.4 5.3 5.2
5.3 5.3 5.0 5.0 4.9 5.3 5.2 4.9 5.0 4.9 5.0 4.9 5.5 5.7 5.8 6.1 5.9 5.8 5.7 5.8 5.8 5.8 6.1 6.1 6.2 6.2 6.2 5.7 5.7 6.0 6.4 5.8 5.8 5.7 5.6 5.4 5.4 5.3 5.2 5.3 5.1 5.2 5.3
5.1 5.1 5.3 5.4 5.3 5.3 5.0 5.3 5.2 5.1 4.8 4.8 4.8 5.0 5.5 5.4 5.2 5.2 5.5 5.6 5.9 5.9 5.9 5.9 5.9 5.8 5.9 5.8 5.8 6.1 5.9 5.6 5.7 5.9 5.2 5.1 5.2 5.2 5.2 4.9 5.1 5.1 4.9
5.0 5.1 5.4 5.4 5.4 5.7 5.7 5.5 5.6 5.7 5.4 5.2 5.0 4.7 4.8 4.9 5.1 5.0 5.5 5.4 5.6 5.6 5.5 5.8 5.9 5.7 6.0 5.9 6.0 5.8 5.7 5.7 5.5 5.6 5.5 5.3 5.3 5.1 5.2 5.2 5.1 5.1 5.0
5.4 5.5 5.5 5.5 5.6 5.5 5.5 5.4 5.3 5.3 5.5 5.8 5.6 5.3 5.2 5.2 4.9 5.0 5.1 5.1 5.0 4.9 5.0 5.1 5.4 5.3 5.5 5.5 5.5 5.6 5.4 5.7 5.6 5.7 5.4 5.5 5.5 5.3 5.2 5.2 5.2 5.3 4.9
5.9 5.9 6.0 6.0 6.0 6.0 5.8 5.8 5.7 5.7 5.7 5.6 5.5 5.4 5.4 5.3 5.3 5.2 5.1 5.1 5.0 4.9 4.7 4.7 4.8 4.7 4.7 4.9 5.0 5.2 5.4 5.4 5.5 5.6 5.5 5.6 5.6 5.5 5.4 5.6 5.7 5.7 5.7
6.1 6.1 6.1 6.0 6.1 6.1 6.2 6.3 6.3 6.3 6.2 6.2 6.1 6.0 5.7 5.6 5.5 5.4 5.2 5.0 5.0 4.9 4.8 4.7 4.6 4.5 4.3 4.2 4.5 4.6 4.6 4.5 4.6 4.9 5.0 4.7 4.8 5.1 5.1 5.2 5.4 5.6 5.4
6.0 6.0 6.0 6.0 6.1 6.1 6.0 6.0 6.0 6.0 6.0 6.0 6.0 5.9 5.9 5.9 5.9 5.8 5.6 5.6 5.5 5.3 5.1 5.0 4.9 4.5 4.3 4.3 4.2 4.0 4.1 3.9 3.9 4.0 4.2 4.2 3.9 3.6 3.8 4.0 4.1 4.4 4.3
6.1 6.0 5.9 5.8 5.7 5.6 5.6 5.6 5.6 5.6 5.7 5.6 5.7 5.7 5.7 5.7 5.6 5.6 5.6 5.5 5.4 5.3 5.1 5.0 4.8 4.7 4.4 4.3 4.1 3.9 3.7 3.5 3.4 3.4 3.3 3.4 3.5 3.6 3.6 3.6 3.5 3.4 3.5
5.8 5.8 5.7 5.7 5.6 5.6 5.5 5.5 5.5 5.4 5.2 5.1 5.1 5.2 5.2 5.3 5.3 5.4 5.4 5.4 5.3 5.1 5.0 4.8 4.6 4.5 4.4 4.3 4.2 4.2 4.1 3.9 3.7 3.8 3.6 3.4 3.3 3.3 3.2 3.2 3.3 3.3 3.4
5.6 5.6 5.5 5.5 5.4 5.3 5.3 5.2 5.1 5.0 5.0 4.9 4.9 4.8 4.7 4.7 4.8 4.8 4.7 4.7 4.6 4.6 4.5 4.5 4.4 4.2 4.1 4.0 4.0 3.9 3.8 3.9 3.9 3.8 3.7 3.6 3.5 3.4 3.4 3.2 3.1 2.9 3.0
5.5 5.4 5.3 5.2 5.0 4.9 4.7 4.6 4.4 4.3 4.2 4.1 4.0 4.0 3.9 3.9 3.8 3.8 3.8 3.9 3.9 3.9 3.7 3.7 3.7 3.7 3.7 3.5 3.5 3.5 3.5 3.4 3.5 3.5 3.3 3.4 3.4 3.2 3.1 3.1 3.0 3.0 2.9
5.1 5.0 4.9 4.9 4.7 4.5 4.2 3.9 3.8 3.6 3.4 3.2 3.1 3.0 2.9 3.0 3.1 3.3 3.3 3.3 3.2 3.3 3.3 3.3 3.3 3.3 3.2 3.1 3.1 3.1 3.0 3.0 3.0 3.0 3.0 3.0 2.9 2.9 2.8 3.0 3.0 2.9 2.9
4.6 4.6 4.5 4.3 4.0 3.6 3.3 3.1 3.0 2.8 2.7 2.6 2.6 2.7 2.7 2.7 2.7 2.7 2.7 2.8 2.8 2.9 3.0 2.9 2.9 2.8 2.8 2.7 2.7 2.7 2.7 2.7 2.7 2.7 2.7 2.7 2.6 2.6 2.6 2.6 2.6 2.6 2.7
4.4 4.3 4.1 3.8 3.5 3.2 3.0 2.8 2.7 2.6 2.6 2.6 2.6 2.6 2.6 2.8 3.1 3.5 3.8 4.0 4.0 4.0 3.9 3.7 3.5 3.2 2.9 2.6 2.5 2.5 2.4 2.4 2.4 2.4 2.4 2.4 2.4 2.4 2.4 2.5 2.5 2.5 2.5
4.3 4.0 3.6 3.4 3.1 2.9 2.7 2.6 2.7 2.8 2.8 2.8 3.0 3.6 4.1 4.4 4.5 4.7 4.7 4.7 4.7 4.8 4.8 4.8 4.8 4.7 4.6 4.3 4.0 3.6 3.3 3.1 2.9 2.8 2.7 2.6 2.5 2.5 2.4 2.4 2.4 2.4 2.4
3.8 3.6 3.4 3.3 3.0 2.8 2.8 2.9 2.9 2.9 3.4 4.1 4.4 4.5 4.5 4.5 4.5 4.6 4.6 4.6 4.7 4.9 5.0 5.1 5.1 5.2 5.3 5.3 5.1 5.0 4.9 4.7 4.6 4.3 3.9 3.7 3.5 3.3 3.2 3.1 3.1 3.0 2.9
3.6 3.3 3.1 2.9 2.9 2.8 2.9 2.8 3.2 3.8 4.1 4.2 4.3 4.4 4.4 4.4 4.4 4.5 4.5 4.6 4.7 4.8 5.0 5.1 5.2 5.3 5.4 5.5 5.5 5.4 5.4 5.3 5.1 4.9 4.8 4.6 4.3 4.2 4.0 3.8 3.7 3.6 3.6
Wind_Speed
15 13 12 10 12 13 11 10 13 12 13 13 15 14 14 13 14 14 12 11 13 13 11 10 12 11 8 8 8 9 9 9 11 9 7 11 9 12 12 21 25 20 24
14 12 13 12 14 6 8 11 7 9 8 9 11 11 11 11 13 14 12 9 12 10 10 10 11 7 12 14 12 12 12 12 10 15 11 8 12 15 14 14 13 22 21
15 14 15 16 15 15 8 5 5 6 5 5 6 6 6 5 7 4 6 7 7 6 6 8 11 12 13 11 11 11 10 9 12 11 11 11 11 11 12 11 13 13 17
18 19 18 18 16 15 15 15 15 11 10 12 13 14 14 12 11 9 6 4 4 3 4 7 10 11 13 13 12 12 12 12 12 11 10 7 7 9 10 11 9 6 5
17 20 19 17 18 17 18 16 14 16 14 14 16 16 14 13 9 8 4 3 1 3 5 5 6 8 11 10 8 12 13 11 13 12 11 9 9 6 13 9 10 5 3
20 20 20 16 18 19 19 17 18 17 17 17 17 15 13 10 13 12 4 5 8 8 8 9 10 11 10 14 12 13 15 15 14 11 11 12 15 12 10 11 10 7 5
20 19 18 19 19 16 17 17 19 17 16 17 16 15 15 13 19 15 13 11 10 10 11 10 9 8 11 12 13 7 8 9 3 8 15 16 16 16 15 15 13 13 10
20 19 19 20 19 18 20 18 18 12 17 16 16 15 16 14 23 19 16 13 11 12 12 13 11 11 11 11 9 6 7 9 11 5 3 7 6 15 17 18 16 9 6
21 20 19 19 18 18 20 18 16 14 17 18 17 17 18 17 26 21 14 12 11 12 11 14 14 13 20 14 5 4 5 6 6 12 15 15 18 21 5 8 7 12 3
18 18 18 19 18 19 17 13 13 13 14 11 16 14 22 16 29 27 17 7 11 7 9 11 23 17 21 20 10 7 7 8 9 9 9 12 16 15 21 9 10 14 5
15 16 17 17 17 17 15 15 13 14 15 14 13 13 14 18 19 27 26 11 7 7 7 7 8 21 22 21 20 11 9 7 10 10 9 8 10 12 10 10 10 6 2
14 15 17 17 14 13 16 14 15 14 14 13 13 12 12 13 23 22 25 21 14 9 9 7 8 18 23 23 16 22 20 11 8 9 9 10 9 10 9 10 13 13 13
13 14 15 15 15 15 15 16 13 14 12 13 12 11 11 11 12 22 20 20 17 10 9 12 17 19 19 15 24 22 15 8 8 10 9 8 9 8 9 11 12 16 19
14 13 12 13 13 14 11 11 12 12 11 11 10 11 10 11 12 12 10 9 12 10 10 9 10 10 13 12 12 12 9 8 8 8 7 6 7 8 10 9 8 8 11
13 13 13 11 13 11 12 12 11 14 14 11 11 10 11 11 11 16 15 10 9 8 7 8 9 9 10 10 10 11 10 9 9 8 7 7 8 8 9 8 8 9 11
12 11 11 10 10 10 9 8 18 18 21 22 21 17 10 18 21 18 18 21 17 15 9 9 9 9 10 9 9 9 9 10 8 8 8 7 7 8 8 8 8 9 9
12 12 9 11 10 10 10 9 9 9 14 19 22 21 21 20 22 21 16 13 19 12 9 8 8 8 8 8 8 8 8 8 8 7 7 7 7 7 7 8 7 8 8
11 13 9 9 9 9 9 9 8 9 9 9 14 16 20 19 20 22 20 12 9 11 9 8 8 8 8 8 7 7 7 7 7 7 7 7 6 6 6 7 6 7 7
10 8 8 7 7 8 8 8 8 9 9 9 10 12 14 17 16 17 18 9 9 8 8 8 8 8 8 7 7 6 7 7 7 6 6 6 6 5 6 6 6 7 7
7 12 9 8 8 8 8 8 8 8 8 8 8 10 11 10 10 10 9 9 8 8 8 7 7 7 7 7 6 6 5 6 6 5 6 5 5 4 5 5 5 5 5
6 7 8 6 7 7 7 7 7 7 7 8 8 8 12 9 9 8 8 8 8 8 7 7 6 7 7 7 7 6 6 5 6 5 5 5 5 4 4 4 4 4 5
6 6 6 7 6 7 7 7 7 7 7 7 7 5 6 6 7 7 7 7 7 7 9 7 6 6 7 7 7 6 5 6 6 6 5 4 4 4 4 4 4 4 4
6 7 6 6 7 7 7 7 6 7 7 7 7 7 7 6 6 7 7 6 6 8 9 10 7 6 9 8 9 9 6 6 6 7 5 4 4 4 4 4 4 4 4
5 6 6 6 6 6 6 7 6 6 6 7 7 7 6 6 6 6 5 6 7 7 7 7 6 8 9 9 9 10 10 9 8 6 7 5 3 3 4 4 4 4 4
6 7 6 6 7 7 7 7 7 7 7 7 7 6 7 7 6 6 4 6 6 7 6 5 6 5 4 6 7 9 9 10 10 8 5 4 4 4 4 3 3 3 3
7 8 8 7 7 7 8 8 8 7 7 7 6 6 6 6 6 6 5 5 5 6 5 6 5 5 5 4 3 5 6 8 10 10 7 5 4 3 2 3 2 2 2
Wind_Direction
314 313 318 317 267 211 199 199 215 208 206 195 196 188 192 191 191 188 184 195 203 204 206 206 215 211 217 216 220 224 229 232 243 252 244 228 195 209 215 207 214 213 213
333 343 358 1 10 189 201 203 218 205 179 179 174 175 177 185 189 189 180 183 194 199 200 205 211 208 226 233 230 227 230 230 230 244 229 208 205 210 211 204 209 211 214
358 5 20 21 21 19 26 91 115 126 117 123 131 157 145 133 153 165 154 172 190 187 207 221 236 241 245 248 245 237 233 241 241 237 238 216 210 208 207 213 210 212 216
14 21 28 27 20 24 27 37 44 51 66 69 67 67 61 56 43 36 54 89 114 187 216 243 254 256 260 261 260 261 253 243 232 231 230 213 200 201 205 206 208 203 147
17 27 23 32 31 31 34 35 42 52 57 62 62 55 52 45 28 15 30 70 48 253 236 271 294 334 318 323 307 280 256 242 244 224 224 222 207 194 199 197 201 151 121
23 29 20 28 35 36 37 36 43 47 49 53 55 53 43 41 8 24 12 85 56 42 19 1 345 318 349 321 300 293 265 264 247 238 231 225 212 208 200 199 188 164 185
26 28 26 29 34 31 44 41 42 41 50 52 50 49 47 32 27 38 51 65 61 51 35 11 349 350 338 327 313 325 17 13 323 277 248 220 220 209 199 196 189 194 196
26 29 27 30 34 35 43 40 43 35 47 45 47 43 47 27 33 35 54 66 62 55 47 26 10 355 350 330 331 339 30 32 18 341 4 330 272 213 204 198 188 160 83
26 26 25 29 32 36 42 35 38 36 43 38 42 36 42 32 33 36 51 54 56 46 40 35 23 16 5 359 24 34 32 25 343 33 44 41 33 21 316 197 140 156 124
22 23 26 31 32 37 35 34 39 42 49 44 49 43 38 35 34 35 37 48 56 41 34 35 30 28 27 29 40 32 44 9 360 10 8 26 39 26 24 20 172 181 140
23 26 30 31 32 34 37 33 33 38 43 42 44 36 35 35 32 36 37 35 35 40 33 23 33 32 40 40 49 41 35 31 25 35 16 14 37 41 26 24 34 47 113
26 30 32 28 32 31 33 33 34 34 38 38 39 39 34 32 33 32 38 41 36 45 32 25 30 34 45 45 46 49 42 39 44 50 33 25 28 39 37 38 46 59 60
29 38 32 36 31 32 34 31 31 31 30 31 28 27 27 25 24 19 25 32 34 46 40 36 37 33 32 38 44 46 42 45 50 53 48 31 22 28 42 49 42 58 65
35 35 41 38 42 39 37 40 36 30 30 26 26 21 18 22 20 15 13 13 25 28 26 33 41 43 43 39 36 35 39 44 53 62 50 37 37 32 41 39 48 48 59
36 34 33 37 39 42 59 43 43 41 34 32 26 28 20 19 17 18 20 19 15 11 20 34 35 33 35 36 41 36 38 43 41 38 50 54 48 47 45 44 52 62 64
34 37 33 34 33 35 33 48 62 51 45 41 33 34 29 24 16 16 22 25 20 17 37 36 34 33 31 28 30 31 32 30 32 39 44 48 53 55 63 56 57 64 70
34 26 30 30 30 29 28 28 23 33 46 40 32 29 26 23 21 20 14 21 31 28 40 33 32 29 26 30 28 26 24 24 22 31 39 47 51 52 56 66 69 74 74
31 34 30 30 25 24 25 23 23 18 14 16 27 22 20 17 21 20 15 20 31 35 36 29 26 24 23 24 25 22 21 21 27 28 35 39 45 55 64 68 70 82 86
25 24 19 26 27 21 19 19 17 14 13 11 8 15 10 11 18 24 21 27 21 24 23 26 22 18 16 18 18 21 25 34 23 30 40 42 39 55 70 72 74 81 98
32 27 16 18 14 12 11 10 9 8 7 9 15 10 358 3 13 16 21 17 16 19 11 15 15 15 14 9 14 6 20 21 29 33 33 36 46 62 71 75 79 84 82
15 21 9 15 16 8 1 3 358 357 357 354 358 25 355 350 7 13 14 13 11 8 6 0 10 12 5 9 9 13 13 20 18 22 21 41 31 53 59 73 82 82 94
18 14 14 13 11 8 356 354 351 346 346 345 346 357 336 352 356 0 9 6 5 4 359 0 2 10 12 4 4 2 16 14 10 10 22 14 25 48 53 58 72 84 98
17 7 5 8 3 348 354 348 345 342 341 339 340 339 341 351 346 350 353 354 354 359 5 358 3 3 7 12 13 14 10 13 9 358 352 10 21 36 38 60 63 66 69
2 356 354 354 4 338 348 334 338 334 330 332 334 332 337 336 331 331 335 347 339 345 354 355 6 10 5 1 8 18 21 8 360 13 353 358 28 32 46 51 58 52 78
340 334 332 332 329 329 322 325 324 323 322 323 324 323 321 319 320 323 328 322 327 318 336 323 338 346 14 13 19 22 21 17 15 342 359 19 33 32 18 38 23 70 56
326 321 318 317 312 313 312 310 309 311 311 310 312 312 312 310 307 311 310 305 296 304 308 326 316 317 312 300 9 19 16 16 17 9 348 3 353 11 26 52 23 75 74